Regional Weather Roundup
Issued by NWS

Home | Current Version | Previous Version | Text Only | Print | Product List | Glossary On
Versions: 1 2 3 4 5 6 7 8 9 10 11 12 13 14 15 16 17 18 19 20 21 22 23 24 25 26 27 28 29 30 31 32 33 34 35 36 37 38 39 40 41 42 43 44 45 46 47 48 49 50
000
ASUS43 KMPX 171510
RWRMN
WEATHER ROUNDUP FOR MINNESOTA
NATIONAL WEATHER SERVICE TWIN CITIES/CHANHASSEN MN
900 AM CST TUE JAN 17 2017


NOTE: "FAIR" INDICATES FEW OR NO CLOUDS BELOW 12,000 FEET WITH NO
SIGNIFICANT WEATHER AND/OR OBSTRUCTIONS TO VISIBILITY. N/A MEANS
CURRENT SKY AND/OR WEATHER CONDITIONS ARE NOT AVAILABLE.

MNZ060>063-068>070-171600-
   Twin Cities Metro

CITY           SKY/WX    TMP DP  RH WIND       PRES   REMARKS
TWIN CITIES    CLOUDY    31  25  78 N9        29.97R WCI  23
ST PAUL        CLOUDY    31  28  89 NW9       29.98R WCI  23
CRYSTAL        CLOUDY    28  20  71 NW9       29.97R WCI  19
BLAINE         CLOUDY    30  25  80 NW9       29.97R WCI  22
LAKEVILLE      CLOUDY    30  30 100 NW7       29.95R FOG     WCI  23
EDEN PRAIRIE   CLOUDY    30  24  78 N10       29.95R WCI  21
SOUTH ST PAUL  CLOUDY    32  30  92 N6        29.96R WCI  26
LAKE ELMO      CLOUDY    32  30  93 NW5       29.96R WCI  27
$$
MNZ001>005-007-008-013>017-022>024-027-028-171600-
   Northwest Minnesota

CITY           SKY/WX    TMP DP  RH WIND       PRES   REMARKS
BEMIDJI        CLOUDY    -3  -6  84 CALM      29.93S
HALLOCK        CLOUDY     3   1  92 S10       29.89S WCI -12
ROSEAU         CLOUDY     3   0  85 S6        29.89F WCI  -8
WARROAD        CLOUDY     5   1  85 CALM      29.89F
THIEF RVR FALL CLOUDY     4   1  88 S7        29.93S WCI  -8
CROOKSTON      CLOUDY     3   0  85 S7        29.96S WCI  -9
FOSSTON        CLOUDY     3   1  92 S7        29.93F WCI  -9
DETROIT LAKES  CLOUDY     3   1  92 SE3       29.95F
MOORHEAD       FLURRIES   1  -2  85 S5        29.98S WCI  -8
PARK RAPIDS    CLOUDY    -1  -6  79 CALM      29.94S HAZE
MAHNOMEN       FAIR       6   4  88 S5        29.94S WCI  -2
$$
MNZ006-009>011-018-025>026-171600-
   North Central Minnesota

CITY           SKY/WX    TMP DP  RH WIND       PRES   REMARKS
BAUDETTE       CLOUDY     0  -5  79 CALM      29.89F
FLAG ISLAND    CLOUDY     0  -4  85 SE6       29.88F WCI -12
INTL FALLS     CLOUDY    -1  -5  82 CALM      29.92R
WASKISH        CLOUDY     3   0  85 CALM      29.92F
BIG FORK       CLOUDY     0  -6  78 CALM      29.92F
LONGVILLE      CLOUDY    -2  -6  84 CALM      29.95S
GRAND RAPIDS   FOG        5   1  85 SE3       29.96S VSB 3/4
CRANE LAKE     CLOUDY    -6  -8  92 CALM      29.96F
ORR            CLOUDY     5   0  78 CALM      29.90F
COOK           CLOUDY     0  -4  85 CALM      29.93F FOG
WALKER         FAIR       0  -3  85 CALM      29.94S
$$
MNZ012-019>021-037-171600-
   Northeast Minnesota

CITY           SKY/WX    TMP DP  RH WIND       PRES   REMARKS
DULUTH         FOG       26  23  88 N5        29.94R VSB 1/8 WCI  20
ELY            CLOUDY    -2  -8  78 CALM      29.95R
HIBBING        FOG        2  -1  88 SE7       29.94R VSB<1/4 WCI -11
EVELETH        CLOUDY     3  -1  81 CALM      29.96R FOG
DULUTH HARBOR  CLOUDY    25  21  86 CALM      29.98S
TWO HARBORS    HAZE      30  25  80 NW3       29.94R VSB 3/4
SILVER BAY     FOG       21  21 100 CALM      29.94R VSB<1/4
GRAND MARAIS     N/A     20  17  88 NW5       29.98R WCI  13
G MARAIS ARPRT CLOUDY    14   9  79 N3        29.92R
$$
MNZ029>031-032-039>041-046>048-054>057-064-171600-
   West Central Minnesota

CITY           SKY/WX    TMP DP  RH WIND       PRES   REMARKS
FERGUS FALLS   CLOUDY     1   0  92 CALM      30.03S
WHEATON        CLOUDY     7   5  92 CALM      30.01F
MORRIS         CLOUDY     5   1  85 CALM      29.99S
ALEXANDRIA     CLOUDY     6   5  95 W3        29.97R FOG
ELBOW LAKE     FAIR       2  -1  88 CALM      29.99S
WADENA         LGT SNOW   0  -6  78 CALM      29.95S VSB 3/4
GLENWOOD       CLOUDY     9   7  92 CALM      29.98R FOG
APPLETON       CLOUDY     1  -2  85 CALM      30.02S
ORTONVILLE     CLOUDY     5   1  85 CALM      30.00S FOG
MADISON        CLOUDY     5   1  85 CALM      30.03R
WILLMAR        CLOUDY    19  18  93 W6        30.01S WCI  11
$$
MNZ033>034-036-042>043-049>051-058-059-171600-
   Central Minnesota

CITY           SKY/WX    TMP DP  RH WIND       PRES   REMARKS
ST CLOUD       FOG       27  27 100 CALM      29.98R VSB 1/4
SAUK CENTRE    FAIR      14  12  92 W3        29.98R
PAYNESVILLE    FOG       27  27 100 W3        29.99R VSB 1/2
AITKIN         HAZE       7   1  78 CALM      29.95S VSB 1
PINE RIVER     CLOUDY     0  -2  92 CALM      29.99R FOG
BRAINERD       CLOUDY     4   2  91 CALM      29.96S FOG
STAPLES        CLOUDY    -4  -8  84 CALM      29.96R FOG
LONG PRAIRIE   FAIR      12  10  92 CALM      29.97S FOG
LITTLE FALLS   CLOUDY    21  19  93 CALM      29.98R FOG
LITCHFIELD     FOG       30  30 100 NW3       29.98S VSB 1/2
BUFFALO        CLOUDY    28  27  93 NW5       29.99S FOG     WCI  23
MAPLE LAKE     FOG       29  29 100 NW6       29.99S VSB 1/4 WCI  23
HUTCHINSON     FOG       31  31 100 NW6       29.99R VSB 1/4 WCI  26
$$
MNZ037-044-045-052-053-171600-
   East Central Minnesota

CITY           SKY/WX    TMP DP  RH WIND       PRES   REMARKS
PRINCETON      CLOUDY    27  23  86 CALM      29.98R FOG
MORA           CLOUDY    21  16  79 CALM      29.99S
CAMBRIDGE      CLOUDY    27  18  69 NW3       29.96S
RUSH CITY      CLOUDY    25  19  80 CALM      29.98R
MOOSE LAKE     CLOUDY     9   5  85 CALM      29.96R
HINCKLEY       CLOUDY    23  19  86 NW3       29.97R
CLOQUET        FOG       18  16  93 NW3       29.95R VSB<1/4
MCGREGOR       CLOUDY     3   0  85 CALM      29.98R
$$
MNZ071>073-080-081-089-090-097-098-171600-
   Southwest Minnesota

CITY           SKY/WX    TMP DP  RH WIND       PRES   REMARKS
MONTEVIDEO     CLOUDY    16  12  86 CALM      30.03R
GRANITE FALLS  CLOUDY    19  16  85 W7        30.03S WCI  10
CANBY            N/A     11   8  85 CALM      30.02S
MARSHALL       CLOUDY    20  15  81 NW7       30.02R WCI  11
REDWOOD FALLS  CLOUDY    21  16  81 NW8       30.01R WCI  11
OLIVIA         CLOUDY    21  18  86 NW8       30.00S WCI  12
PIPESTONE      CLOUDY    12  10  92 CALM      29.99R FOG
WINDOM         CLOUDY    23  21  93 NW6       29.99R WCI  16
WORTHINGTON    FOG       28  27  96 NW9       30.00R VSB 1/4 WCI  19
JACKSON        CLOUDY    25  25 100 W6        29.99R FOG     WCI  18
TRACY          CLOUDY    24  19  83 NW3       30.00S
SLAYTON        FOG       24  24  98 NW3       29.99S VSB 1
$$
MNZ065>067-074>077-082>085-091>093-171600-
   South Central Minnesota

CITY           SKY/WX    TMP DP  RH WIND       PRES   REMARKS
MANKATO        CLOUDY    30  28  92 NW12      29.98R WCI  20
NEW ULM        FOG       25  25 100 W10       29.99R VSB 1/2 WCI  15
ST JAMES       CLOUDY    23  23 100 W10       30.01R FOG     WCI  12
FAIRMONT       FOG       27  27 100 NW12      29.99R VSB 1   WCI  16
GLENCOE        CLOUDY    31  31  98 NW6       29.97S FOG     WCI  25
FARIBAULT        N/A     30  30 100 NW6       29.94S FOG     WCI  24
OWATONNA       CLOUDY    30  28  93 NW5       29.94R FOG     WCI  25
WASECA         CLOUDY    32  30  93 NW6       29.96R FOG     WCI  26
ALBERT LEA     FOG       30  30 100 NW3       29.93R VSB<1/4
$$
MNZ078>079-086>088-094>096-171600-
   Southeast Minnesota

CITY           SKY/WX    TMP DP  RH WIND       PRES   REMARKS
ROCHESTER      FOG       32  32 100 N10       29.89S VSB 1/4 WCI  24
RED WING       CLOUDY    34  32  93 CALM      29.92S FOG
STANTON        CLOUDY    33  31  94 NW8       29.93R FOG     WCI  25
DODGE CENTER   FOG       30  30 100 NW3       29.91R VSB 1/4
WINONA         MIX PCPN  34  34 100 NW5       29.91S WCI  30
AUSTIN         FOG       30  30 100 NW6       29.91R VSB 1/4 WCI  24
PRESTON        CLOUDY    32  31  97 N5        29.89R FOG     WCI  27
$$
ABBREVIATIONS USED IN REMARKS
   TC - TEMPERATURES IN CELSIUS
  WCI - WIND CHILL INDEX
   HX - HEAT INDEX
  VSB - VISIBILITY
$$



USA.gov is the U.S. government's official web portal to all federal, state and local government web resources and services.